Location: *
(50.0228°S, 177.2688°W)
Time: 12:49:55
(UTC+00:00)

STARLINK-1057 - Pass Details

Date: 07 April 2020
Orbit: 548 x 551 km, 53.0° (Epoch: 28 May)

Event Time Altitude Azimuth Distance (km) Brightness Sun altitude
Rises 08:01:04 0° 248° (WSW) 2,752 8.6 -25.9°
Reaches altitude 10° 08:03:20 10° 251° (WSW) 1,853 7.3 -26.2°
Enters shadow 08:06:33 46° 279° (W) 758 4.5 -26.7°
